Location: Bradford+West+Gwillimbury,+ON,+Canadà
(44.1162°N, 79.5735°W)
Time: 05:16:47
(UTC-04:00)

Tianhe-1 - Visible Passes

Search period start: 19 June 2021 00:00
Search period end: 29 June 2021 00:00
Orbit: 375 x 386 km, 41.5° (Epoch: 18 June)

Date Brightness Start Highest point End Pass type
(mag) Time Alt. Az. Time Alt. Az. Time Alt. Az.
19 Jun 3.5 04:24:28 10° S 04:25:48 12° SSE 04:27:08 10° SE visible
21 Jun 2.9 03:59:43 17° S 04:00:22 18° SSE 04:02:37 10° ESE visible
22 Jun 1.9 04:33:27 14° SW 04:35:48 35° SSE 04:38:44 10° E visible
23 Jun 2.4 03:35:04 25° SSE 03:35:04 25° SSE 03:37:37 10° E visible
24 Jun 1.5 04:08:48 22° SW 04:10:25 44° S 04:13:26 10° E visible
25 Jun 2.4 03:10:25 27° SE 03:10:25 27° SE 03:12:23 10° E visible
25 Jun 1.3 04:42:56 10° W 04:46:00 52° S 04:49:04 10° ESE visible
26 Jun 1.2 03:44:11 38° SW 03:45:00 50° S 03:48:04 10° E visible
27 Jun 3.1 02:45:55 19° ESE 02:45:55 19° ESE 02:47:01 10° E visible
27 Jun 1.3 04:18:02 14° W 04:20:33 47° S 04:23:35 10° ESE visible
28 Jun 1.3 03:19:55 48° SSE 03:19:55 48° SSE 03:22:36 10° ESE visible
28 Jun 2.0 04:53:13 10° W 04:56:00 29° SSW 04:58:49 10° SE visible
